Regional Weather Roundup
Issued by NWS

Home | Current Version | Previous Version | Graphics & Text | Print | Product List | Glossary On
Versions: 1 2 3 4 5 6 7 8 9 10 11 12 13 14 15 16 17 18 19 20 21 22 23 24 25 26 27 28 29 30 31 32 33 34 35 36 37 38 39 40 41 42 43 44 45 46 47 48 49 50
000
ASUS43 KDMX 042307
RWRIA

WEATHER ROUNDUP FOR IOWA
NATIONAL WEATHER SERVICE DES MOINES IA
600 PM CDT MON MAY 04 2015

NOTE: "FAIR" INDICATES FEW OR NO CLOUDS BELOW 12,000 FEET WITH NO
SIGNIFICANT WEATHER AND/OR OBSTRUCTIONS TO VISIBILITY.

* - THESE STATIONS ARE NOT NWS STATIONS...THUS NOT UNDER NWS
QUALITY CONTROL.  THEY ALSO DO NOT REPORT WEATHER SUCH
AS PRECIPITATION OR FOG.

IAZ001>003-012>014-020>022-031>034-043>046-050000-
   NORTHWEST IOWA

CITY           SKY/WX    TMP DP  RH WIND       PRES   REMARKS
CARROLL *      CLOUDY    57  54  88 NE10      30.13R FOG
CHEROKEE *     CLOUDY    64  43  45 SE12G17   30.13S
DENISON *      LGT RAIN  55  55 100 NE12G17   30.11R
LE MARS *      MOSUNNY   68  43  40 SE15G21   30.12F
ORANGE CITY *  SUNNY     68  36  30 E10G18    30.13R
SHELDON *      SUNNY     70  39  32 E17       30.12S
SIOUX CITY     LGT RAIN  61  49  64 SE14      30.12S
SPENCER        CLOUDY    68  36  30 E14       30.14S
STORM LAKE *   SUNNY     57  46  67 E14       30.15S
$$

IAZ055>058-069>071-079>083-090>094-050000-
   SOUTHWEST IOWA

CITY           SKY/WX    TMP DP  RH WIND       PRES   REMARKS
ATLANTIC *     LGT RAIN  64  63  94 NE9       30.09S
AUDUBON *      DRIZZLE   61  55  82 NE12G17   30.11S
CLARINDA *     LGT RAIN  66  64  94 N9        30.06F
COUNCIL BLFS * DRIZZLE   63  63 100 NE10      30.07F
CRESTON *      LGT RAIN  64  64 100 NE10      30.08R
HARLAN  *      CLOUDY    63  63 100 NE13      30.13R
LAMONI         CLOUDY    73  63  70 N8        30.04S
RED OAK *      LGT RAIN  66  64  94 NE10      30.06F
SHENANDOAH *   RAIN      66  64  94 NE12      30.04F
$$

IAZ047>049-059>061-072>074-084-050000-
   CENTRAL IOWA

CITY           SKY/WX    TMP DP  RH WIND       PRES   REMARKS
AMES           LGT RAIN  63  59  87 N12       30.11S
ANKENY *       MOSUNNY   66  63  88 NE9       30.09S
CHARITON *     PTSUNNY   72  63  73 N10       30.06R
DES MOINES     LGT RAIN  68  62  81 NE12      30.08F
GRINNELL*      CLOUDY    66  61  82 NE7       30.09R
KNOXVILLE *    CLOUDY    70  61  73 NE9       30.06R
MARSHALLTOWN   LGT RAIN  66  60  81 NE7       30.09R
PELLA *        LGT RAIN  70  64  83 CALM      30.09R
PERRY *        PTSUNNY   63  59  88 NE9       30.10R
$$

IAZ004>006-015-016-023>025-035-036-050000-
   NORTH CENTRAL IOWA

CITY           SKY/WX    TMP DP  RH WIND       PRES   REMARKS
ALGONA *       PTSUNNY   68  37  32 NE13      30.14S
CLARION *      MOSUNNY   64  46  52 E10       30.13S
ESTHERVILLE    PTSUNNY   67  35  30 E14       30.14S
FORT DODGE *   CLOUDY    63  48  59 E10       30.14R
MASON CITY     CLOUDY    67  40  37 NE9       30.15S
FOREST CITY *  SUNNY     66  36  32 NE9G16    30.14S
IOWA FALLS *   DRIZZLE   63  50  63 NE10      30.14R
$$

IAZ007>011-017>019-026>030-037>042-050>054-066-050000-
   NORTHEAST IOWA

CITY           SKY/WX    TMP DP  RH WIND       PRES   REMARKS
CEDAR RAPIDS   LGT RAIN  69  63  81 E9        30.06F
CHARLES CITY * MOSUNNY   68  43  40 NE9       30.14R
CLINTON *      PTSUNNY   73  61  64 E12       30.10F
DECORAH *      SUNNY     68  41  37 VRB6      30.12S
DUBUQUE        CLOUDY    71  57  61 NE6       30.10S
MONTICELLO *   LGT RAIN  70  63  78 NE5       30.08S
OELWEIN *      PTSUNNY   68  57  68 NE7       30.11S
WATERLOO       RAIN      66  58  75 NE9       30.10R
$$

IAZ064-065-067-068-078-050000-
   EAST CENTRAL IOWA

CITY           SKY/WX    TMP DP  RH WIND       PRES   REMARKS
DAVENPORT      PTSUNNY   72  59  63 E14       30.08S
IOWA CITY      LGT RAIN  71  63  75 NE10      30.07S
MT. PLEASANT * CLOUDY    75  61  60 SE15      30.03S
MUSCATINE *    CLOUDY    75  63  64 NE13      30.05R
QUAD CITIES    PTSUNNY   74  60  61 E10       30.05F
$$

IAZ062-063-075>077-085>089-095>099-050000-
   SOUTHEAST IOWA

CITY           SKY/WX    TMP DP  RH WIND       PRES   REMARKS
BURLINGTON     CLOUDY    70  66  87 SE6       30.05R
FAIRFIELD *    MOSUNNY   73  63  68 NE15      30.03F
FORT MADISON * LGT RAIN  70  66  88 E8        30.05S
KEOKUK *       PTSUNNY   72  64  78 E7        30.03R
OSKALOOSA *    PTSUNNY   73  61  64 NE12      30.05R
CENTERVILLE *  SUNNY     75  66  73 N5        30.06R
OTTUMWA        CLOUDY    72  66  81 NE10      30.04R
WASHINGTON *   SUNNY     73  72  94 NE13G18   30.05R
$$

ABBREVIATIONS USED IN REMARKS
   TC - TEMPERATURES IN CELSIUS
  WCI - WIND CHILL INDEX
   HX - HEAT INDEX
  VSB - VISIBILITY
$$



USA.gov is the U.S. government's official web portal to all federal, state and local government web resources and services.